This demonstration page uses our WeatherBlox Daily Observations layout. Learn more.

Left ArrowRight Arrow

Hourly Observations for September 17, 2015

Temp ( °F °C ) Dew Point ( °F °C ) Humidity (%) Winds ( mph kmh ) Pressure ( in mb ) Visibility ( mi km ) Precip ( " mm )
12:52 am 00:52 Mostly Clear 78 25.6 69 20.6 74 74 S 21 33 29.78 1009 10 16 0.00 0.00
1:52 am 01:52 Partly Cloudy 76 24.4 69 20.6 79 79 SSE 17 28 29.78 1009 10 16 0.00 0.00
2:25 am 02:25 Partly Cloudy with Thunderstorms 76 24.4 69 20.6 79 79 SSE 16 26 29.74 1007 10 16 0.00 0.00
2:43 am 02:43 Mostly Cloudy with Strong Thunderstorms 75 23.9 70 21.1 84 84 SSE 26 43 29.74 1007 1 2 0.00 0.03
2:48 am 02:48 Cloudy with Strong Thunderstorms 73 23 70 21 89 89 SSE 31 50 29.71 1006 2 3 0.00 0.00
2:52 am 02:52 Windy with Storms Likely 74 23.3 70 21.1 88 88 SSE 24 39 29.75 1007 7 11 0.09 2.29
3:34 am 03:34 Mostly Cloudy 73 23 70 21 89 89 SSE 17 28 29.71 1006 10 16 0.00 0.00
3:52 am 03:52 Partly Cloudy 74 23.3 70 21.1 88 88 SSE 20 31 29.73 1007 10 16 0.00 0.03
4:52 am 04:52 Partly Cloudy 74 23.3 69 20.6 85 85 SSE 16 26 29.72 1006 10 16 0.00 0.00
5:52 am 05:52 Partly Cloudy 73 22.8 69 20.6 87 87 SSE 13 20 29.71 1006 10 16 0.00 0.00
6:52 am 06:52 Mostly Cloudy 74 23.3 68 20 82 82 SSE 12 19 29.72 1007 10 16 0.00 0.00
6:59 am 06:59 Mostly Cloudy with Thunderstorms 74 23.3 68 20 82 82 SSE 12 19 29.71 1006 10 16 0.00 0.03
7:25 am 07:25 Partly Cloudy 74 23.3 68 20 82 82 S 9 15 29.71 1006 10 16 0.00 0.03
7:52 am 07:52 Partly Cloudy 72 22.2 69 20.6 91 91 SSE 9 15 29.74 1007 10 16 0.00 0.03
8:52 am 08:52 Partly Cloudy 74 23.3 69 20.6 85 85 SSE 14 22 29.73 1007 10 16 0.00 0.03
9:52 am 09:52 Partly Cloudy 77 25 69 20.6 77 77 S 16 26 29.72 1007 10 16 0.00 0.00
10:52 am 10:52 Partly Cloudy 81 27.2 70 21.1 69 69 S 16 26 29.72 1006 10 16 0.00 0.00
11:52 am 11:52 Partly Cloudy 84 28.9 70 21.1 63 63 SW 10 17 29.71 1006 10 16 0.00 0.00
12:52 pm 12:52 Partly Cloudy 86 30 70 21.1 59 59 W 12 19 29.71 1006 10 16 0.00 0.00
1:52 pm 13:52 Mostly Cloudy 87 30.6 70 21.1 57 57 W 10 17 29.71 1006 10 16 0.00 0.00
2:52 pm 14:52 Mostly Cloudy 86 30 69 20.6 57 57 NW 7 11 29.71 1006 10 16 0.00 0.00
3:52 pm 15:52 Mostly Cloudy 84 28.9 71 21.7 65 65 NNW 8 13 29.72 1006 10 16 0.00 0.00
4:52 pm 16:52 Mostly Cloudy 83 28.3 71 21.7 67 67 NNW 8 13 29.73 1007 10 16 0.00 0.00
5:52 pm 17:52 Mostly Cloudy 82 27.8 69 20.6 65 65 NNW 14 22 29.75 1007 10 16 0.00 0.00
6:52 pm 18:52 Mostly Sunny 79 26.1 62 16.7 56 56 NNW 10 17 29.76 1008 10 16 0.00 0.00
7:52 pm 19:52 Partly Cloudy 73 22.8 62 16.7 69 69 N 7 11 29.77 1008 10 16 0.00 0.00
8:52 pm 20:52 Clear 71 21.7 62 16.7 73 73 N 6 9 29.82 1010 10 16 0.00 0.00
9:52 pm 21:52 Clear 68 20 61 16.1 78 78 N 9 15 29.84 1010 10 16 0.00 0.00
10:52 pm 22:52 Clear 68 20 58 14.4 70 70 N 9 15 29.84 1011 10 16 0.00 0.00
11:52 pm 23:52 Clear 65 18.3 58 14.4 78 78 NNW 8 13 29.86 1011 10 16 0.00 0.00

Powered by AerisWeather